Location: Newark
(35.9031°N, 139.7175°E)
Time: 13:04:33
(UTC+00:00)

Transit 2A - Pass Details

Date: 27 May 2020
Orbit: 592 x 967 km, 66.7° (Epoch: 06 July)

Event Time Altitude Azimuth Distance (km) Brightness Sun altitude
Rises 12:54:31 0° 342° (NNW) 3,544 10.7 -27.6°
Reaches altitude 10° 12:57:21 10° 354° (N) 2,641 9.6 -27.9°
Maximum altitude 13:02:43 30° 53° (NE) 1,661 7.7 -28.4°
Enters shadow 13:03:56 28° 73° (ENE) 1,732 7.7 -28.5°
